This demonstration page uses our WeatherBlox Daily Observations layout. Learn more.

39.92423, -83.80882

Hourly Observations for December 24, 2017

Temp ( °F °C ) Dew Point ( °F °C ) Humidity (%) Winds ( mph kmh ) Pressure ( in mb ) Visibility ( mi km ) Precip ( " mm )
12:56 am 00:56 Clear 30 -1.1 27 -2.8 88 88 NW 5 7 30.23 1024 10 16.0934 0 0
1:56 am 01:56 Clear 28 -2.2 26 -3.3 92 92 Calm 30.23 1024 10 16.0934 0 0
2:56 am 02:56 Clear 28 -2.2 25 -3.9 88 88 N 5 7 30.24 1024 10 16.0934 0 0
3:56 am 03:56 Clear 28 -2.2 25 -3.9 88 88 NE 3 6 30.23 1024 10 16.0934 0 0
4:56 am 04:56 Clear 28 -2.2 25 -3.9 88 88 NE 5 7 30.22 1023 10 16.0934 0 0
5:56 am 05:56 Mostly Cloudy 28 -2.2 25 -3.9 88 88 ENE 7 11 30.23 1024 10 16.0934 0 0
6:56 am 06:56 Mostly Cloudy 28 -2.2 25 -3.9 88 88 E 7 11 30.22 1023 10 16.0934 0 0
7:56 am 07:56 Cloudy 28 -2.2 25 -3.9 88 88 E 8 13 30.21 1023 9 14.48406 0 0
8:56 am 08:56 Cloudy 28 -2.2 25 -3.9 88 88 E 8 13 30.17 1022 10 16.0934 0 0
9:56 am 09:56 Mostly Cloudy 29 -1.7 26 -3.3 89 89 E 12 19 30.13 1020 9 14.48406 0 0
10:56 am 10:56 Cloudy 31 -0.6 26 -3.3 82 82 SE 8 13 30.12 1020 10 16.0934 0 0
11:56 am 11:56 Cloudy 32 0 27 -2.8 82 82 SE 7 11 30.08 1019 10 16.0934 0 0
12:17 pm 12:17 Cloudy 34 1 27 -3 75 75 S 6 9 30.09 1019 10 16.0934 0 0
12:56 pm 12:56 Cloudy 33 0.6 27 -2.8 78 78 VRB 5 7 30.05 1018 10 16.0934 0 0
1:56 pm 13:56 Cloudy 33 0.6 27 -2.8 78 78 Calm 29.98 1015 10 16.0934 0 0
2:56 pm 14:56 Cloudy 33 0.6 27 -2.8 78 78 SSW 6 9 29.95 1014 10 16.0934 0 0
3:56 pm 15:56 Cloudy 33 0.6 28 -2.2 82 82 WSW 6 9 29.94 1014 10 16.0934 0 0
4:56 pm 16:56 Cloudy with Light Snow 32 0 27 -2.8 82 82 WSW 5 7 29.91 1013 4 6.43736 0 0.0254
5:08 pm 17:08 Cloudy with Light Snow 32 0 28 -2 87 87 WSW 5 7 29.94 1014 1.75 2.816345 0 0.0254
5:20 pm 17:20 Cloudy with Light Snow 30 -1 28 -2 93 93 NW 5 7 29.94 1014 1.5 2.41401 0 0.0254
5:25 pm 17:25 Cloudy with Light Snow 30 -1 28 -2 93 93 NNW 6 9 29.94 1014 1 1.60934 0 0.0254
5:54 pm 17:54 Cloudy with Light Snow 30 -1 28 -2 93 93 N 5 7 29.94 1014 0.75 1.207005 0 0.0254
5:56 pm 17:56 Cloudy with Light Snow 30 -1.1 29 -1.7 96 96 NNW 3 6 29.91 1013 0.75 1.207005 0 0.0254
6:01 pm 18:01 Cloudy with Light Snow 30 -1 28 -2 93 93 NW 5 7 29.94 1014 1 1.60934 0 0.0254
6:26 pm 18:26 Cloudy with Light Snow 30 -1 28 -2 93 93 Calm 29.94 1014 1.25 2.011675 0 0.0254
6:56 pm 18:56 Cloudy with Light Snow 30 -1.1 28 -2.2 92 92 Calm 29.91 1013 1.5 2.41401 0 0.0254
7:09 pm 19:09 Cloudy with Light Snow 30 -1 28 -2 93 93 Calm 29.91 1013 1.75 2.816345 0.01 0.254
7:36 pm 19:36 Cloudy with Light Snow 30 -1 28 -2 93 93 WNW 5 7 29.91 1013 1.25 2.011675 0.02 0.508
7:56 pm 19:56 Cloudy with Light Snow 30 -1.1 28 -2.2 92 92 WNW 13 20 29.9 1013 1.25 2.011675 0.02 0.508
8:02 pm 20:02 Cloudy with Light Snow 30 -1 28 -2 93 93 WNW 13 20 29.94 1014 0.75 1.207005 0 0.0254
8:09 pm 20:09 Cloudy with Light Snow 30 -1 28 -2 93 93 W 9 15 29.94 1014 1.25 2.011675 0 0.0254
8:20 pm 20:20 Cloudy with Light Snow 28 -2 27 -3 93 93 W 9 15 29.94 1014 2.5 4.02335 0 0.0254
8:25 pm 20:25 Cloudy with Light Snow 28 -2 27 -3 93 93 W 14 22 29.94 1014 3 4.82802 0 0.0254
8:56 pm 20:56 Windy with Snow Likely 29 -1.7 27 -2.8 92 92 WNW 20 31 29.93 1014 4 6.43736 0 0.0254
9:36 pm 21:36 Windy with Snow Likely 27 -3 23 -5 86 86 W 26 43 29.97 1015 2 3.21868 0 0.0254
9:41 pm 21:41 Windy with Snow Likely 27 -3 21 -6 80 80 W 25 41 30 1016 3 4.82802 0 0.0254
9:50 pm 21:50 Windy with Snow Likely 25 -4 21 -6 86 86 W 25 41 30 1016 2.5 4.02335 0 0.0254
9:56 pm 21:56 Windy with Snow Likely 24 -4.4 20 -6.7 84 84 W 29 46 29.98 1015 4 6.43736 0 0.0254
10:56 pm 22:56 Windy with Snow Likely 21 -6.1 17 -8.3 85 85 W 24 39 30.04 1017 4 6.43736 0 0.0254
11:25 pm 23:25 Windy with Snow Likely 19 -7 16 -9 86 86 W 30 48 30.09 1019 1.75 2.816345 0 0.0254
11:43 pm 23:43 Windy with Snow Likely 19 -7 16 -9 86 86 W 22 35 30.12 1020 3 4.82802 0 0.0254
11:56 pm 23:56 Windy with Snow Likely 20 -6.7 16 -8.9 85 85 W 24 39 30.07 1018 2.5 4.02335 0 0.0254

Powered by AerisWeather